#timestamp,LO_Frequency,Hit 
1502326815.5,286046991.3,N
1502326835.3,286046990.3,N
1502326855.2,286046990.2,N
1502326875.0,286046990.8,N
1502326875.9,286046990.8,N
1502326895.7,286046994.7,N
1502326915.6,286046992.1,N
1502326935.4,286046992.0,N
1502326955.3,286046994.3,N
1502326975.1,286046994.2,N
1502326976.0,286046994.2,N
1502326995.8,286046996.3,N
1502327015.7,286046997.5,N
1502327035.5,286046995.0,N
1502327055.4,286046996.7,N
1502327075.2,286046997.8,N
1502327095.0,286046997.5,N
1502327095.9,286046997.5,N
1502327115.8,286046997.8,N
1502327135.6,286046998.8,N
1502327155.4,286046998.7,N
1502327175.3,286047000.4,N
1502327195.1,286047002.8,N
1502327215.9,286047001.4,N
1502327235.7,286047003.7,N
1502327255.5,286047001.5,N
1502327275.4,286047003.9,N
1502327295.2,286047005.7,N
1502327315.0,286047004.9,N
1502327316.0,286047004.9,N
1502327335.8,286047006.5,N
1502327355.6,286047008.9,N
1502327375.5,286047010.1,N
1502327395.3,286047012.4,N
1502327415.2,286047014.0,N
1502327435.9,286047011.6,N
1502327455.7,286047015.1,N
1502327475.6,286047015.2,N
1502327495.4,286047012.5,N
1502327515.2,286047015.1,N
1502327535.1,286047012.7,N
1502327536.0,286047012.7,N
1502327555.8,286047015.3,N
1502327575.7,286047016.9,N
1502327595.5,286047014.9,N
1502327615.3,286047014.3,N
1502327635.2,286047016.2,N
1502327655.0,286047020.3,P
1502327655.9,286047020.3,P
1502327675.8,286047010.1,N
1502327695.6,286047009.5,N
1502327715.4,286047012.1,N
1502327735.3,286047009.3,N
1502327755.1,286047009.7,N
1502327775.8,286047009.5,N
1502327795.7,286047010.0,N
1502327815.5,286047009.6,N
1502327835.4,286047009.8,N
1502327855.2,286047012.3,P
1502327875.0,286046998.7,P
1502327875.9,286046998.7,N
1502327895.8,286046999.8,N
1502327915.6,286046999.7,N
1502327935.5,286046998.7,N
1502327955.3,286047002.7,N
1502327975.1,286047001.9,N
1502327995.9,286047002.4,N
1502328015.7,286047003.9,N
1502328035.5,286047001.8,N
1502328055.4,286047003.8,N
1502328075.2,286047005.9,N
1502328095.1,286047004.5,N
1502328096.0,286047004.5,N
1502328115.8,286047006.8,N
1502328135.6,286047009.2,N
1502328155.5,286047008.5,N
1502328175.3,286047008.9,N
1502328195.2,286047008.1,N
1502328215.9,286047008.7,N
1502328235.7,286047008.5,N
1502328255.6,286047009.0,N
1502328275.4,286047006.1,N
1502328295.2,286047009.0,N
1502328315.1,286047006.1,N
1502328316.0,286047006.1,N
1502328335.8,286047008.8,N
1502328355.7,286047008.1,N
1502328375.5,286047010.8,N
1502328395.3,286047008.1,N
1502328415.2,286047010.6,N
1502328435.0,286047010.7,P
1502328435.9,286047010.7,P
1502328455.8,286047001.3,N
1502328475.6,286047004.2,N
1502328495.4,286047001.7,N
1502328515.3,286047004.4,N
1502328535.1,286047001.4,N
1502328555.9,286047002.2,N
1502328575.7,286047001.4,N
1502328595.5,286047005.4,N
1502328615.4,286047007.6,N
1502328635.2,286047005.9,N
1502328655.0,286047004.1,N
1502328655.9,286047004.1,N
1502328675.8,286047004.0,P
1502328695.6,286046998.7,P
1502328715.5,286047001.1,N
1502328735.3,286047001.0,N
1502328755.1,286047001.6,N
1502328775.9,286047002.4,N
1502328795.7,286047001.5,N
1502328815.5,286047000.3,N
1502328835.4,286046999.9,N
1502328855.2,286047000.6,N
1502328875.1,286047002.7,N
1502328876.0,286047002.7,N
1502328895.8,286047001.5,N
1502328915.6,286047003.2,N
1502328935.5,286047004.4,N
1502328955.3,286047004.2,N
1502328975.2,286047001.5,N
1502328995.9,286046999.7,P
1502329015.7,286046998.1,N
1502329035.6,286046998.4,N
1502329055.4,286047000.7,N
1502329075.2,286047000.2,N
1502329095.1,286047000.1,N
1502329096.0,286047000.1,N
1502329115.8,286047000.9,N
1502329135.7,286047002.3,N
1502329155.5,286047002.5,N
1502329175.3,286047000.7,N
1502329195.2,286047000.8,N
1502329215.0,286046998.3,N
1502329215.9,286046998.3,N
1502329235.8,286046998.8,N
1502329255.6,286046999.3,N
1502329275.4,286046999.2,N
1502329295.3,286046996.5,N
1502329315.1,286046999.0,N
1502329335.9,286046998.8,N
1502329355.7,286046998.2,N
1502329375.5,286047000.7,N
1502329395.4,286047000.7,N
1502329415.2,286047000.5,N
1502329435.0,286046998.2,N
1502329435.9,286046998.2,N
1502329455.8,286046998.2,N
1502329475.6,286047001.2,N
1502329495.5,286047000.8,N
1502329515.3,286047001.1,N
1502329535.1,286047001.0,N
1502329555.9,286046998.7,N
1502329575.7,286047000.3,N
1502329595.5,286046998.2,N
1502329615.4,286047000.8,N
1502329635.2,286046999.9,N
1502329655.1,286047000.1,N
1502329656.0,286047000.1,N
1502329675.8,286047000.2,N
1502329695.6,286047001.1,N
1502329715.5,286047000.4,N
1502329735.3,286047000.2,N
1502329755.2,286046998.6,N
1502329775.9,286047001.2,N
1502329795.7,286047001.2,N
1502329815.6,286046998.3,N
1502329835.4,286047002.6,N
1502329855.2,286047002.6,N
1502329875.1,286047002.1,N
1502329876.0,286047002.1,N
1502329895.8,286047001.6,N
1502329915.7,286047001.3,N
1502329935.5,286047002.6,N
1502329955.3,286047001.9,N
1502329975.2,286047001.9,N
1502329995.0,286047001.4,N
1502329995.9,286047001.4,N
1502330015.8,286047004.2,P
1502330035.6,286047004.0,N
1502330055.4,286047003.9,N
1502330075.3,286047001.3,N
1502330095.1,286047001.5,N
1502330115.8,286047003.6,N
1502330135.7,286047003.1,N
1502330155.5,286047002.9,N
1502330175.4,286047003.3,N
1502330195.2,286047003.5,N
1502330215.0,286047005.7,P
1502330215.9,286047005.7,P
1502330235.8,286047002.3,N
1502330255.6,286047002.7,N
1502330275.5,286047002.1,N
1502330295.3,286047000.1,N
1502330315.1,286047002.3,N
1502330335.9,286047000.3,N
1502330355.7,286047002.3,N
1502330375.5,286047001.4,N
1502330395.4,286047003.7,N
